Tracking 28790 objects as of 19-Apr-2024
HD Live streaming from Space Station
objects crossing your sky now

ARIANE 2 DEB

Track ARIANE 2 DEB now!


NORAD ID: 27625
Int'l Code: 1988-098H
Perigee: 927.2 km
Apogee: 39,380.8 km
Inclination: 3.4 °
Period: 716.5 minutes
Semi major axis: 26525 km
RCS: 0.1 m2 (medium)
Launch date: October 28, 1988
Source: France (FR)
Launch site: FRENCH GUIANA (FRGUI)

Note: This is SATELLITE DEBRIS
Your satellite tracking list
Your tracking list is empty




NASA's NSSDC Master Catalog

Two Line Element Set (TLE):
1 27625U 88098H   24109.82048469 -.00000147  00000-0  15803-1 0  9993
2 27625   3.3637 180.4324 7248564 176.0375  56.8058  2.00964623159013
Source of the keplerian elements: AFSPC